Hourly Data Report for July 01, 2022

SAINT JOHN A
NEW BRUNSWICK
Current Station Operator: NAVCAN

45°18'58.000" N
65°53'24.000" W
108.80 m
8104901
71609
YSJ

Download Data

Hourly Data (July 2022)
Hourly Data Report for July 1, 2022
TIME
LST
Temp Definition
°C
Dew Point Definition
°C
Rel Hum Definition
%
Precip. Amount Definition
mm

Wind Dir Definition
10's deg

Wind Spd Definition
km/h
Visibility Definition
km
Stn Press Definition
kPa
Hmdx Definition


Wind Chill Definition


Weather Definition


00:00 13.0 12.3 96   36 2 24.1 100.48     LegendNANA
01:00 10.9 10.4 96   36 1 24.1 100.46     LegendNANA
02:00 10.8 10.4 97   7 4 24.1 100.46     Clear
03:00 10.1 9.8 98   36 3 24.1 100.46     LegendNANA
04:00 8.9 8.9 100   36 2 0.8 100.48     Fog
05:00 10.6 10.6 100   36 3 0.8 100.46     Fog
06:00 12.2 12.2 100   36 1 19.3 100.48     LegendNANA
07:00 15.5 15.5 100   36 1 24.1 100.46     LegendNANA
08:00 17.1 14.0 82   18 5 24.1 100.48     Cloudy
09:00 16.9 12.9 78   17 12 24.1 100.42     LegendNANA
10:00 18.0 13.3 74   20 13 24.1 100.43     LegendNANA
11:00 21.1 12.2 56   21 27 24.1 100.37     Cloudy
12:00 21.2 11.9 55   20 25 24.1 100.33     LegendNANA
13:00 19.8 13.4 66   20 23 24.1 100.28     LegendNANA
14:00 22.1 14.7 62   21 32 24.1 100.24 26   Mostly Cloudy
15:00 21.7 15.6 68   21 29 24.1 100.18 26   LegendNANA
16:00 20.6 15.3 71   21 28 24.1 100.14 25   LegendNANA
17:00 19.2 15.2 78   21 31 24.1 100.08     Mainly Clear
18:00 17.7 15.5 87   20 27 16.1 99.99     LegendNANA
19:00 16.6 15.3 92   19 26 11.3 99.94     LegendNANA
20:00 14.9 14.3 96   20 23 1.2 99.93     Fog
21:00 14.6 14.5 100   21 24 1.2 99.99     Fog
22:00 14.4 14.4 100   19 18 0.4 100.01     Fog
23:00 14.5 14.5 100   23 5 0.4 100.06     Fog

Notes on Data Quality.

Legend

  • E = Estimated
  • M = Missing
  • NA = Not Available*
  • [empty] = Indicates an unobserved value
Date modified: